User: anonymous   Login
Location: Byszew
(52.1813°N, 19.2693°E)
Time: 11:26:46
(UTC+00:00)
Language:

Ariane Rocket - Orbit

View from above orbital plane
View from above orbital plane
View from above satellite
View from above satellite

Ground track
Ground track

The orbit data is extracted from the following two-line orbital elements,

1 23561U 95021B   21133.39727324  .00000043  00000-0  29061-4 0  9990
2 23561  98.6774 182.8547 0006839   5.8358   4.8036 14.38024712365995
Epoch (UTC): 13 May 2021 09:32:04
Eccentricity: 0.0006839
inclination: 98.6774°
perigee height: 760 km
apogee height: 770 km
right ascension of ascending node: 182.8547°
argument of perigee: 5.8358°
revolutions per day: 14.38024712
mean anomaly at epoch: 4.8036°
orbit number at epoch: 36599

The dashed part of the orbit path shows where the satellite is in the earth's shadow,  

DLR